Simultaneous Nadir Overpasses (SNOs) Predictions

Prediction of SNOs between GOES-14 and AQUA Satellite Orbit:

Table of predicted SNOs for the next 14.0 days since TLE Epoch: 1/6/2024
Index Date Time (GOES-14) GOES-14 Lat,Lon AQUA Lat,Lon Distance(km) Time Diff (sec)
1 01/06/2024 09:15:03 -0.08,-108.59 -0.10,-108.49 10.97 80
2 01/08/2024 08:59:44 -0.07,-108.58 -0.91,-104.75 436.00 80
3 01/08/2024 21:17:38 0.07,-108.57 -0.17,-109.73 131.43 80
4 01/10/2024 21:04:58 0.06,-108.56 0.62,-105.98 293.25 80
5 01/11/2024 09:22:45 -0.06,-108.56 0.44,-110.93 269.89 80
6 01/13/2024 09:10:04 -0.06,-108.55 -0.33,-107.18 154.81 80
7 01/13/2024 21:27:59 0.06,-108.54 -0.73,-112.16 412.62 80
8 01/15/2024 21:15:18 0.06,-108.53 0.07,-108.41 12.70 80
9 01/17/2024 20:59:57 0.06,-108.52 0.91,-104.67 438.32 80
10 01/18/2024 09:17:43 -0.06,-108.52 0.18,-109.61 124.44 80
